[Iaude] MPEC F82: 2007 GQ3 [a=1.81,e=0.45,i=10.2,H=22.03]

mpec at cfa.harvard.edu mpec at cfa.harvard.edu
Sun Mar 24 11:21:25 EDT 2024


M.P.E.C. 2024-F82                                Issued 2024 March 24, 15:20 UT

     The Minor Planet Electronic Circulars contain information on unusual
         minor planets, routine data on comets and natural satellites,
         and occasional editorial announcements.  They are published
    on behalf of Division F of the International Astronomical Union by the
          Minor Planet Center, Smithsonian Astrophysical Observatory,
                          Cambridge, MA 02138, U.S.A.
			  
             Prepared using the Tamkin Foundation Computer Network

                              MPC at CFA.HARVARD.EDU
            URL https://www.minorplanetcenter.net/    ISSN 1523-6714

                                    2007 GQ3                                    


                           Revision to MPEC 2007-G33                            

Additional Observations:
     K07G03Q  C2024 03 17.47190914 24 00.424+15 23 32.97         20.78wXEF082F52
     K07G03Q  C2024 03 17.48451414 24 02.519+15 23 24.23         20.75wXEF082F52
     K07G03Q  C2024 03 17.49714814 24 04.639+15 23 15.42         20.82wXEF082F52
     K07G03Q  C2024 03 17.50980614 24 06.737+15 23 06.43         20.82wXEF082F52
     K07G03Q 1C2024 03 22.31299614 39 54.932+14 08 58.27         20.26GVEF082G96
     K07G03Q 1C2024 03 22.31810414 39 55.940+14 08 53.12         20.36GVEF082G96
     K07G03Q 1C2024 03 22.32323314 39 56.981+14 08 46.97         20.33GVEF082G96
     K07G03Q 1C2024 03 22.32834414 39 58.039+14 08 41.28         19.66GVEF082G96
     K07G03Q  C2024 03 22.35692314 40 03.666+14 08 07.93         20.0 GVEF082H01
     K07G03Q  C2024 03 22.36478914 40 05.253+14 07 58.93         20.1 GVEF082H01
     K07G03Q  C2024 03 22.37348714 40 07.020+14 07 48.96         19.8 GVEF082H01
     K07G03Q  C2024 03 22.37848714 40 08.032+14 07 43.10         20.0 GVEF082H01
     K07G03Q KC2024 03 22.41893914 40 16.345+14 06 56.70         20.04GVEF082I52
     K07G03Q KC2024 03 22.42096714 40 16.784+14 06 55.01         20.56GVEF082I52
     K07G03Q KC2024 03 22.42298814 40 17.166+14 06 52.34         20.09GVEF082I52
     K07G03Q KC2024 03 22.42500414 40 17.594+14 06 50.33         20.01GVEF082I52
     K07G03Q KC2024 03 22.96648714 42 18.276+13 55 44.98         20.0 GVEF082J95
     K07G03Q KC2024 03 22.99485114 42 24.389+13 55 10.88         20.0 GVEF082J95
     K07G03Q KC2024 03 23.02005714 42 29.760+13 54 39.74         19.8 GVEF082J95

Observer details:
F52 Pan-STARRS 2, Haleakala.  Observers J. Herman, T. Lowe, P. Minguez, A.
    Schultz, I. Smith.  Measurers K. Chambers, T. de Boer, J. Fairlamb, H.
    Gao, M. Huber, C.-C. Lin, E. Magnier, Y. Ramanjooloo, R. Wainscoat, R.
    Weryk, J. Herman, T. Lowe, P. Minguez, A. Schultz, I. Smith.  1.8-m
    Ritchey-Chretien + CCD.
G96 Mt. Lemmon Survey.  Observer H. Groeller.  Measurers T. Beuden, V. F.
    Carvajal, D. Fay, J. B. Fazekas, D. C. Fuls, A. R. Gibbs, A. D. Grauer, H.
    Groeller, J. K. Hogan, R. A. Kowalski, S. M. Larson, G. J. Leonard, D.
    Rankin, R. L. Seaman, F. C. Shelly, K. W. Wierzchos, H. Groeller.  1.5-m
    reflector + 10K CCD.
H01 Magdalena Ridge Observatory, Socorro.  Observers W. H. Ryan, E. V. Ryan.
    Measurers W. H. Ryan, W. H. Ryan, E. V. Ryan.  2.4-m f/8.9 Ritchey-
    Chretien + CCD.
I52 Steward Observatory, Mt. Lemmon Station.  Observer D. Rankin.  Measurers
    T. Beuden, V. F. Carvajal, D. Fay, J. B. Fazekas, D. C. Fuls, A. R. Gibbs,
    A. D. Grauer, H. Groeller, J. K. Hogan, R. A. Kowalski, S. M. Larson, G.
    J. Leonard, D. Rankin, R. L. Seaman, F. C. Shelly, K. W. Wierzchos, D.
    Rankin.  1.0-m prime focus + CCD.
J95 Great Shefford.  Observer P. Birtwhistle.  Measurers P. Birtwhistle, P.
    Birtwhistle.  0.41-m f/6.3 Schmidt-Cassegrain + CCD.

First and last observations above in comparison with prediction:
Residuals in seconds of arc (or two decimals in degrees), reference and Delta-T
240317 F52 4.23- 2.90-    240323 J95 5.13- 3.47-    E2024-B03   -0.97 days

Orbital elements:
2007 GQ3                                                 Earth MOID = 0.0201 AU
Epoch 2024 Mar. 31.0 TT = JDT 2460400.5                 Veres                   
M 341.62070              (2000.0)            P               Q                  
n   0.40636249     Peri.  209.65295     -0.44055105     +0.89211457             
a   1.8052069      Node    34.49000     -0.78488630     -0.32857421             
e   0.4508261      Incl.   10.19539     -0.43573875     -0.31011383             
P   2.43           H   22.03          G   0.15           U   0                  
Residuals in seconds of arc
070411 704  1.2+  1.8-    070415 246  0.3+  0.3+    070420 151  0.0   0.1+
070411 704  1.0-  0.1-    070415 151  0.3-  0.4+    070420 151  0.0   0.2-
070411 704  0.2-  0.4+    070415 151  0.3-  0.5+    070420 B23 (3.8-  1.7-)
070411 704  0.9+  0.7+    070415 A53  0.0   0.1+    070420 B23 (1.0-  3.1-)
070411 704  1.5+  0.7+    070415 A53  0.8+  0.3+    070420 B23 (1.5-  2.9-)
070411 113  0.1-  0.3+    070415 A48  0.3+  0.0     070421 151  0.2-  0.5-
070411 113  0.1+  0.1+    070415 A48  0.2+  0.3-    070421 151  0.2+  0.2-
070411 595  0.7-  0.1+    070415 A48  0.2+  0.1-    070421 151  0.4+  0.0
070411 113  0.2+  0.1-    070415 A48  0.4+  0.3+    070421 151  0.1-  0.1-
070411 024  0.0   0.2+    070416 H45  0.1+  0.2+    070421 151  0.2+  0.0
070411 595  1.2-  0.3-    070416 H45  0.4-  0.9+    070421 151  0.4-  0.4+
070411 246  1.0+  0.3-    070416 H45  0.2-  0.4+    070421 151  0.9-  0.5+
070411 246  0.9-  0.4-    070416 H45  0.4-  0.4-    070421 941  0.1-  0.0
070411 024  0.0   0.4+    070416 H45  0.1-  0.2+    070421 941  0.0   0.1-
070411 246  0.4+  0.0     070416 H45  0.1-  0.1-    070421 941  0.0   0.1-
070411 473  0.3+  0.1-    070416 H45  0.1+  0.3-    070421 941  0.2-  0.1-
070411 024  0.1+  0.2+    070416 H45  0.2-  0.3-    070422 448  0.2-  0.1-
070411 473  0.1+  0.3-    070416 H45  0.5-  0.5+    070422 448  0.3-  0.2-
070411 473  0.3+  0.5-    070416 A35  0.2-  0.1-    070422 448  0.3+  0.1-
070411 J95  0.1-  0.0     070416 A35  0.1-  0.0     070422 151  1.0-  1.7-
070411 J95  0.1+  0.1-    070416 A35  0.2-  0.0     070422 151  0.8-  0.7-
070411 J95  0.0   0.1+    070416 A35  0.3-  0.1-    070422 151  0.7-  0.4-
070412 711  0.3+  0.2+    070417 H36  0.0   0.1-    070422 151  0.5-  0.6-
070412 711  0.1+  0.3-    070417 H36  0.5-  0.2+    070422 151  0.3-  0.9-
070412 711  0.4-  0.0     070417 H36  0.5+  0.1-    070422 151  0.1-  0.4-
070412 G96  0.1+  0.0     070417 H36  0.1+  0.0     070422 151  0.1+  0.1+
070412 G96  0.2-  0.1-    070417 704  0.2-  0.3-    070423 084  0.1+  0.1-
070412 G96  0.2+  0.3-    070417 704  0.3+  0.0     070423 084  0.5+  0.0
070413 850  0.6+  0.7+    070417 704  0.4-  0.7+    070423 170  0.2-  0.3-
070413 850  0.4+  0.3-    070417 704  0.2+  0.8+    070423 170  0.2-  0.1-
070413 850  0.6-  0.3+    070417 H45  0.4+  0.5+    070423 170  0.2-  0.5-
070413 118  1.2-  0.5+    070417 H45  0.5-  0.4+    070424 703  0.1-  0.1+
070413 118  0.2-  0.2-    070417 H45  0.2+  0.2-    070424 703  0.4-  0.2+
070413 118  0.3-  0.3-    070417 H45  0.0   0.0     070424 703  0.4-  0.2+
070413 246  0.2-  0.5+    070417 H45  0.3+  1.4+    070424 185  0.4+  1.3-
070413 246  0.3-  0.6+    070417 H45  0.3-  0.7+    070424 185  0.8+  0.0
070413 246  0.3+  0.6+    070417 H45  0.2-  0.0     070424 185  1.5+  0.8+
070413 246  0.6+  0.4+    070417 704  0.1-  0.8+    070426 A53  0.2+  0.3+
070413 246  0.3+  0.1+    070417 B23  1.4-  0.9-    070426 A53  0.3-  0.5+
070413 246  0.4+  0.2+    070417 B23  1.5-  1.5-    070426 A53  0.3+  0.8-
070413 246  0.0   0.1+    070417 B23  1.7-  1.4-    070426 A48  0.1+  0.4-
070414 246  0.1+  0.1-    070417 B23  1.3-  1.4-    070426 A48  0.2+  0.3-
070414 246  0.2-  0.1-    070417 B23  1.3-  1.3-    070426 A48  0.8-  0.0
070414 246  0.3-  0.1-    070417 B23  1.0-  1.1-    070426 A48  0.3-  0.1-
070414 246  0.1-  0.0     070417 A48  0.8+  1.0+    070427 A81  0.1-  0.2+
070414 246  0.0   0.3-    070417 A48  0.6+  0.3+    070427 A81  0.4-  1.0+
070414 246  0.1-  0.0     070417 A48  0.2+  0.3-    240317 F52  0.0   0.0
070414 B23  1.1-  1.0-    070417 A48  0.8+  0.2+    240317 F52  0.2-  0.0
070414 B23  1.4-  0.9-    070419 H45  0.1+  0.0     240317 F52  0.1+  0.0
070414 B23  0.9-  0.8-    070419 H45  0.4-  0.1+    240317 F52  0.0   0.0
070414 B23  1.5-  1.1-    070419 H45  0.8-  0.0     240322 G96  0.4+  0.3-
070414 B23  1.0-  0.9-    070419 H45  0.1+  0.5+    240322 G96  0.1-  0.3+
070414 A53  0.3+  0.4-    070419 H45  0.1+  0.0     240322 G96  0.2-  0.1-
070414 A53  0.5+  0.1-    070419 H45  0.3+  0.1+    240322 G96  0.1+  0.0
070414 A53  0.0   0.1-    070419 H45  0.6-  0.0     240322 H01  0.1-  0.0
070415 246  0.5+  0.2+    070419 A35  0.2-  0.0     240322 H01  0.2-  0.0
070415 246  0.2+  0.3+    070419 A35  0.1+  0.3+    240322 H01  0.1-  0.0
070415 246  0.6+  0.4+    070419 A35  0.3-  0.2+    240322 H01  0.0   0.1-
070415 151  0.4+  0.4-    070419 A35  0.0   0.4+    240322 I52  0.2-  0.5-
070415 246  0.1+  0.5+    070419 130  0.4-  0.0     240322 I52  0.2+  0.2+
070415 151  0.1-  0.2-    070419 130  0.4+  0.9-    240322 I52  0.2-  0.1-
070415 151  0.1-  0.1-    070419 130  0.4+  0.7-    240322 I52  0.2+  0.2+
070415 246  0.5+  0.3+    070419 130  0.3+  0.9-    240322 J95  0.3-  0.4+
070415 A53  0.7+  0.2-    070420 693  0.3+  0.5+    240322 J95  0.1-  0.4+
070415 151  0.3-  0.0     070420 693  0.7-  0.3-    240323 J95  0.4-  0.1-
070415 246  0.3+  0.2+    070420 693  0.4-  0.3+
070415 151  0.4-  0.3+    070420 151  0.1-  0.6+

Ephemeris:
2007 GQ3                 a,e,i = 1.81, 0.45, 10                  q = 0.9914
Date    TT    R. A. (2000) Decl.     Delta      r    Elong.  Phase     V
2024 02 23    13 29 25.7 +16 58 25   0.4385  1.3317   134.0    32.3    22.2
...
2024 03 09    14 01 26.6 +16 30 17   0.3066  1.2384   138.2    32.3    21.3
...
2024 03 17    14 22 34.9 +15 29 09   0.2449  1.1912   139.2    33.1    20.7
...
2024 03 23    14 42 24.1 +13 55 33   0.2025  1.1576   139.2    34.2    20.3
2024 03 24    14 46 11.9 +13 33 57   0.1957  1.1522   139.2    34.5    20.2
2024 03 25    14 50 10.4 +13 10 12   0.1891  1.1468   139.1    34.7    20.1
...
2024 03 31    15 18 41.8 +09 49 32   0.1517  1.1159   137.7    37.0    19.7
...
2024 04 08    16 16 23.0 +01 14 01   0.1104  1.0785   132.2    43.5    19.1
...
2024 04 23    19 46 59.4 -28 22 04   0.08986 1.0239    99.4    75.6    19.5

A. U. Tomatic                (C) Copyright 2024 MPC           M.P.E.C. 2024-F82





More information about the Iaude mailing list